This demonstration page uses our WeatherBlox Daily Observations layout. Learn more.

Left ArrowRight Arrow

41.55636, -103.73856

Hourly Observations for February 18, 2018

Temp ( °F °C ) Dew Point ( °F °C ) Humidity (%) Winds ( mph kmh ) Pressure ( in mb ) Visibility ( mi km ) Precip ( " mm )
12:53 am 00:53 Clear 48 8.9 15 -9.4 27 27 S 14 22 29.54 1000 10 16 N/A
1:53 am 01:53 Clear 50 10 13 -10.6 22 22 WSW 10 17 29.50 999 10 16 N/A
2:53 am 02:53 Clear 55 12.8 11 -11.7 17 17 SW 22 35 29.44 997 10 16 N/A
3:53 am 03:53 Clear 48 8.9 14 -10 25 25 SSW 13 20 29.47 998 10 16 N/A
4:53 am 04:53 Clear 47 8.3 14 -10 26 26 S 12 19 29.49 999 10 16 N/A
5:53 am 05:53 Clear 45 7.2 16 -8.9 31 31 S 9 15 29.49 999 10 16 N/A
6:53 am 06:53 Sunny 45 7.2 16 -8.9 31 31 SSW 14 22 29.49 999 10 16 N/A
7:53 am 07:53 Sunny 53 11.7 14 -10 21 21 SW 15 24 29.46 998 10 16 N/A
8:53 am 08:53 Sunny 54 12.2 16 -8.9 22 22 SW 14 22 29.45 997 10 16 N/A
9:53 am 09:53 Sunny 58 14.4 17 -8.3 20 20 SW 15 24 29.43 997 10 16 N/A
10:53 am 10:53 Sunny 63 17.2 17 -8.3 17 17 W 10 17 29.39 995 10 16 N/A
11:29 am 11:29 Sunny 57 13.9 26 -3.3 30 30 NNE 23 37 29.35 994 10 16 N/A
11:53 am 11:53 Sunny 54 12.2 28 -2.2 37 37 NNE 17 28 29.41 996 10 16 N/A
12:53 pm 12:53 Sunny 57 13.9 27 -2.8 32 32 NE 17 28 29.38 995 10 16 N/A
1:53 pm 13:53 Partly Cloudy 53 11.7 28 -2.2 38 38 NE 22 35 29.38 995 10 16 N/A
2:53 pm 14:53 Partly Cloudy 47 8.3 29 -1.7 50 50 ENE 24 39 29.43 997 10 16 N/A
3:53 pm 15:53 Sunny 33 0.6 24 -4.4 70 70 NNE 26 43 29.54 1000 10 16 N/A
4:18 pm 16:18 Mostly Cloudy 27 -2.8 22 -5.6 81 81 NE 20 31 29.74 1007 10 16 N/A
4:53 pm 16:53 Cloudy 24 -4.4 19 -7.2 81 81 NE 23 37 29.66 1004 10 16 N/A
5:53 pm 17:53 Cloudy 20 -6.7 15 -9.4 81 81 NNE 20 31 29.73 1007 10 16 N/A
6:31 pm 18:31 Cloudy 18 -7.8 11 -11.7 74 74 NNE 17 28 29.94 1014 10 16 N/A
6:53 pm 18:53 Cloudy 17 -8.3 10 -12.2 74 74 NNE 20 31 29.80 1009 10 16 N/A
7:53 pm 19:53 Cloudy 15 -9.4 7 -13.9 70 70 NNE 25 41 29.77 1008 10 16 N/A
8:53 pm 20:53 Cloudy 14 -10 7 -13.9 73 73 N 17 28 29.79 1009 10 16 N/A
9:53 pm 21:53 Cloudy 13 -10.6 5 -15 70 70 N 18 30 29.80 1009 10 16 N/A
10:53 pm 22:53 Cloudy 12 -11.1 4 -15.6 70 70 N 10 17 29.84 1011 10 16 N/A
11:53 pm 23:53 Cloudy with Light Snow 10 -12.2 4 -15.6 76 76 N 15 24 29.88 1012 6 10 N/A

Powered by AerisWeather